Regional Weather Roundup
Issued by NWS

Home | Current Version | Previous Version | Graphics & Text | Print | Product List | Glossary On
Versions: 1 2 3 4 5 6 7 8 9 10 11 12 13 14 15 16 17 18 19 20 21 22 23 24 25 26 27 28 29 30 31 32 33 34 35 36 37 38 39 40 41 42 43 44 45 46 47 48 49 50
000
ASUS43 KLOT 191403
RWRIL

ILLINOIS REGIONAL WEATHER ROUNDUP
NATIONAL WEATHER SERVICE CHICAGO/ROMEOVILLE IL
800 AM CST MON FEB 19 2018

NOTE: "FAIR" INDICATES FEW OR NO CLOUDS BELOW 12,000 FEET WITH NO
SIGNIFICANT WEATHER AND/OR OBSTRUCTIONS TO VISIBILITY.

* THESE STATIONS ARE NOT UNDER NWS QUALITY CONTROL. THEY ALSO MAY NOT
  REPORT WEATHER SUCH AS PRECIPITATION OR FOG.

ILZ001-002-007-009-015-016-024-191500-
NORTHWEST ILLINOIS

CITY           SKY/WX    TMP DP  RH WIND       PRES   REMARKS
MOLINE         LGT RAIN  42  41  96 SE7       29.75S FOG
STERLING*      MIX PCPN  36  35  96 MISG        N/A  FOG
SAVANNA*       LGT RAIN  38  37  97 E3        29.77F
$$

ILZ003-004-008-010-011-017-018-191500-
NORTH CENTRAL ILLINOIS

CITY           SKY/WX    TMP DP  RH WIND       PRES   REMARKS
ROCKFORD       CLOUDY    36  35  96 SE3       29.83F FOG
FREEPORT*      CLOUDY    36  35  98 E9        29.81F FOG     WCI  29
ROCHELLE*      CLOUDY    36  36  99 SE10      29.81F FOG     WCI  28
DE KALB*       LGT RAIN  36  36  99 SE8       29.82F VSB 1/4 WCI  30
PERU*          DRZL/FOG  39  39  99 SE9       29.83R VSB 1/4 WCI  33
$$

ILZ005-006-012>014-019>023-191500-
NORTHEAST ILLINOIS

CITY           SKY/WX    TMP DP  RH WIND       PRES   REMARKS
CHICAGO-OHARE  LGT RAIN  39  36  89 NE9       29.78F FOG     WCI  33
CHICAGO-MIDWAY LGT RAIN  41  40  96 S7        29.87S FOG
AURORA         MIX PCPN  37  37 100 E7        29.84R VSB 1/2 WCI  32
LANSING*       CLOUDY    40  40 100 S6        29.88F FOG
JOLIET*        CLOUDY    39  39 100 E5        29.86S FOG
WAUKEGAN       CLOUDY    40  39  97 S6        29.84F FOG
DUPAGE AIRPORT FOG       38  38 100 S9        29.85S VSB 1/2 WCI  31
KANKAKEE*      DRIZZLE   43  43  98 SE9       29.87F
WHEELING       LGT RAIN  40  39  97 E5        29.84F FOG
MORRIS*        LGT RAIN  39  38  98 SE5       29.84S VSB<1/4
ROMEOVILLE*    LGT RAIN  37  37 100 SE6       29.85F VSB 1/4 WCI  33
NORTHERLY ISL    N/A     38  37  97 S3          N/A
$$

LMZ740>746-191500-
SOUTHERN LAKE MICHIGAN

STATION/POSITION SKY/WX   TEMP    WIND        PRES    VSBY  WAVE
                          AIR SEA DIR/SP/G                  HT/PER
                          (F)     (DEG/KT/KT) (MB)    (MI)  (FT/S)
HARRISON CRIB              40     130/  9/ 10   N/A
BURNHAM HARBOR             38     130/  3/  9   N/A
CALUMET HARBOR             40     130/  5/ 12 1009.9F
BURNS HARBOR               43     170/ 11/ 15 1012.5F
MICHIGAN CITY              42     140/ 12/ 15   N/A
$$

ILZ025>027-034>036-040-047-049-050-058-095>099-191500-
WEST-CENTRAL ILLINOIS

CITY           SKY/WX    TMP DP  RH WIND       PRES   REMARKS
QUINCY         CLOUDY    57  54  89 S14G22    29.74R
GALESBURG*     DRIZZLE   45  45 100 SE7       29.77S
MACOMB*        DRZL/FOG  45  45 100 SE6       29.78R VSB 1/2
JACKSONVILLE*  CLOUDY    55  53  94 S14G22    29.80R
PITTSFIELD*    CLOUDY    59  56  89 S20G28    29.79R
$$

ILZ028>032-037-038-041>044-048-051>054-059>061-191500-
CENTRAL ILLINOIS

CITY           SKY/WX    TMP DP  RH WIND       PRES   REMARKS
BLOOMINGTON    RAIN      47  47 100 S14       29.83S FOG
DECATUR        LGT RAIN  55  32  41 SW16G24   29.87R
PEORIA         LGT RAIN  50  49  96 S13       29.79S FOG
LACON*         HVY RAIN  43  43 100 SE5       29.80S
LINCOLN*       RAIN      54  54 100 S15       29.82R
SPRINGFIELD    LGT RAIN  57  55  93 S17G24    29.81R
TAYLORVILLE    CLOUDY    55  55  97 S20G26    29.86R THUNDER
$$

ILZ033-039-045-046-055>057-062-063-191500-
EAST-CENTRAL ILLINOIS

CITY           SKY/WX    TMP DP  RH WIND       PRES   REMARKS
CHAMPAIGN      HVY RAIN  51  51 100 SE13      29.86S FOG
DANVILLE*      LGT RAIN  49  49  99 SE8       29.87S
RANTOUL*       RAIN      51  50  99 S10       29.87S
MATTOON        CLOUDY    56  55  97 S15G25    29.88R
PARIS*         CLOUDY    56  55  99 S20G31    29.91S
$$

ILZ079-100>102-191500-
SOUTHWEST ILLINOIS

CITY           SKY/WX    TMP DP  RH WIND       PRES   REMARKS
ALTON          TSTM      57  55  94 S21G29    29.88R
BELLEVILLE     CLOUDY    59  56  89 SW16G25   29.88R
CAHOKIA*       LGT RAIN  60  55  83 SW12G25   29.90R
SPARTA*        CLOUDY    57  57 100 S17G26    29.93S
$$

ILZ064>066-069>071-074>076-080>082-084>086-088>090-092>094-191500-
SOUTH-CENTRAL ILLINOIS

CITY           SKY/WX    TMP DP  RH WIND       PRES   REMARKS
CARBONDALE     CLOUDY    61  59  93 S26G36    29.97R
CAIRO*         CLOUDY    58  57  96 S10       30.03S
EFFINGHAM*     CLOUDY    59  59  99 S17G25    29.93R
MARION         LGT RAIN  59  59 100 S21       29.99S
MT. VERNON     CLOUDY    60  57  89 S23G29    29.95R
CENTRALIA*     CLOUDY    60  58  94 S20G29    29.92R
SALEM*         LGT RAIN  61  57  88 S16G25    29.92R
METROPOLIS*    CLOUDY    61  58  90 S12       30.05S
$$

ILZ067-068-072-073-078-083-087-091-191500-
SOUTHEAST ILLINOIS

CITY           SKY/WX    TMP DP  RH WIND       PRES   REMARKS
LAWRENCEVILLE  CLOUDY    59  56  89 S21       29.97F
FLORA*         DRIZZLE   61  58  90 S24       29.94S
FAIRFIELD*     DRIZZLE   59  58  96 S14       29.96S
HARRISBURG*    LGT RAIN  62  59  90 S23G32    29.99F
ROBINSON*      CLOUDY    58  56  94 S20       29.95F
CARMI*         CLOUDY    60  57  91 S20G26    30.00R
$$

ABBREVIATIONS USED IN REMARKS
   TC - TEMPERATURE IN CELSIUS
  WCI - WIND CHILL INDEX
   HX - HEAT INDEX
  VSB - VISIBILITY
$$





USA.gov is the U.S. government's official web portal to all federal, state and local government web resources and services.